Flag for Japan Weather past 2 weeks in Hamamatsu, Japan

Now
48 °F

Cool.


Feels Like: 42 °F
Forecast: 28 / 51 °F
Wind: 15 mph from West

Location: Omaezaki

Current Time: Mar 2, 2015 at 8:37:32 PM

Latest Report: Mar 2, 2015 at 7:00 PM


Visibility: 13 mi

Pressure: 29.97 "Hg

Humidity: 39%

Dew point: 24 °F

Location of HamamatsuLocation

Historic Weather in Hamamatsu — Graph

°F

Hamamatsu temperature yesterday

Maximum temperature yesterday: 54 °F (at 5:00 AM)
Minimum temperature yesterday: 48 °F (at 11:00 PM)
Average temperature yesterday: 52 °F

Past Weeks' High & Low Weather Summary

 TemperatureHumidityPressure
High64 °F (Feb 23, 3:00 PM)100% (Feb 22, 6:00 PM)30.35 "Hg (Feb 22, 6:00 PM)
Low36 °F (Feb 16, 4:00 AM)31% (Feb 27, 1:00 PM)29.44 "Hg (Mar 1, 7:00 PM)
Average49 °F66%29.98 "Hg
* Reported Feb 15 7:00 PM — Mar 2 7:00 PM, Hamamatsu, Weather by CustomWeather, © 2015

Note: Actual official high and low records may vary slightly from our data, if they occured in-between our weather recording intervals... More about our weather records

Advertising

Hamamatsu weather history for previous 24 hours

 ConditionsComfort  
Time TempWeatherWind HumidityBarometerVisibility
7:00 PM
Mon, Mar 2
48 °FCool.15 mph39%29.97 "Hg12 mi
6:00 PM50 °FCool.16 mph37%29.94 "Hg12 mi
5:00 PM52 °FCool.20 mph38%29.90 "Hg12 mi
4:00 PM54 °FCool.20 mph37%29.89 "Hg12 mi
3:00 PM54 °FCool.24 mph36%29.89 "Hg12 mi
2:00 PM54 °FCool.25 mph37%29.88 "Hg12 mi
1:00 PM54 °FCool.23 mph39%29.88 "Hg12 mi
12:00 PM53 °FCool.26 mph37%29.88 "Hg12 mi
11:00 AM52 °FCool.25 mph36%29.88 "Hg12 mi
10:00 AM51 °FCool.24 mph38%29.86 "Hg12 mi
9:00 AM49 °FCool.26 mph36%29.84 "Hg12 mi
8:00 AM47 °FCool.20 mph42%29.84 "Hg12 mi
7:00 AM45 °FQuite cool.20 mph50%29.80 "Hg12 mi
6:00 AM44 °FQuite cool.23 mph55%29.75 "Hg12 mi
5:00 AM44 °FQuite cool.22 mph58%29.73 "Hg12 mi
4:00 AM45 °FCool.30 mph56%29.71 "Hg12 mi
3:00 AM46 °FCool.30 mph58%29.69 "Hg12 mi
2:00 AM46 °FCool.32 mph62%29.66 "Hg12 mi
1:00 AM47 °FCool.30 mph65%29.64 "Hg12 mi
12:00 AM47 °FCool.28 mph71%29.61 "Hg12 mi
11:00 PM
Sun, Mar 1
48 °FCool.28 mph73%29.58 "Hg12 mi
10:00 PM49 °FCool.28 mph82%29.55 "Hg12 mi
9:00 PM51 °FCool.25 mph87%29.50 "Hg12 mi
8:00 PM51 °FLight rain. Overcast.14 mph99%29.47 "Hg12 mi
Weather by CustomWeather, © 2015

See weather overviewHow to use our weather pages